Total_Precipitation_Accumulation
3.39 3.84 3.81 3.85 3.49 3.62 4.02 4.40 4.40 4.64 4.92 4.74 4.18 3.95 4.08 3.95 3.63 3.38 3.50 3.69 3.80 3.86 4.37 4.73 4.38 4.04 3.91 3.52 3.15 2.98 2.84 2.77 2.57 2.29 2.08 1.98 1.89 1.69 1.56 1.60 1.50 1.40 1.30
3.61 3.99 3.94 3.85 3.50 3.52 3.89 4.27 4.31 4.63 4.75 4.75 4.18 3.83 3.85 3.77 3.41 3.08 3.14 3.61 3.72 3.67 3.98 4.49 4.61 4.51 4.33 3.97 3.56 3.22 2.96 2.85 2.74 2.54 2.25 2.05 1.98 1.90 1.86 1.76 1.65 1.62 1.52
3.86 4.19 4.11 3.68 3.46 3.61 3.87 3.89 4.02 4.49 4.35 4.25 4.15 4.01 3.90 3.67 3.31 3.24 3.18 3.38 3.25 3.44 3.81 4.03 4.36 4.69 4.79 4.65 4.36 3.91 3.53 3.09 2.81 2.62 2.34 2.11 1.99 1.85 1.83 1.86 1.78 1.72 1.63
3.48 3.90 3.61 3.15 3.22 3.51 3.87 3.94 3.81 4.18 4.33 4.29 4.30 4.10 3.88 3.69 3.27 3.18 3.19 3.15 3.16 2.96 3.34 3.75 4.17 4.50 4.94 5.23 5.31 5.13 4.65 3.90 3.28 2.92 2.56 2.30 2.11 1.87 1.69 1.68 1.75 1.75 1.61
2.59 2.97 2.96 2.86 2.84 3.25 3.51 3.13 3.33 3.65 3.87 4.02 3.63 3.56 3.21 3.06 2.99 2.79 2.75 2.66 2.87 3.05 3.24 3.33 3.76 4.10 4.80 5.69 6.25 6.19 5.69 4.79 3.95 3.45 3.11 2.78 2.59 2.25 1.86 1.67 1.68 1.67 1.58
2.39 2.70 2.71 2.53 2.49 2.85 3.14 3.32 3.55 3.55 3.36 3.42 2.89 2.92 2.91 2.69 2.72 2.69 2.50 2.48 2.60 2.57 2.88 3.21 3.55 3.40 4.03 5.07 5.86 6.10 6.02 5.57 4.73 4.02 3.65 3.44 3.31 2.88 2.29 1.99 1.89 1.78 1.67
2.50 2.86 2.64 2.74 2.58 2.67 2.84 2.98 3.20 3.24 2.99 3.11 3.43 3.28 2.93 2.64 2.61 2.53 2.46 2.56 2.60 2.70 2.90 3.31 3.53 3.61 3.56 3.65 4.15 4.93 5.64 5.99 5.81 5.07 4.39 3.95 3.81 3.34 2.70 2.45 2.22 2.05 2.03
2.41 2.39 2.68 2.54 2.49 2.76 2.79 2.94 3.17 3.10 2.75 2.90 3.41 3.69 3.47 3.43 2.86 2.14 2.33 2.49 2.57 2.86 2.89 2.81 3.05 3.62 3.74 3.99 3.39 3.73 4.95 5.75 6.34 6.35 5.58 4.70 4.29 3.77 3.16 2.90 2.64 2.42 2.29
2.05 2.21 2.32 2.29 2.47 2.45 2.72 2.90 2.97 3.18 3.15 2.90 2.87 3.37 3.44 3.46 3.15 2.51 2.14 2.25 2.59 2.96 3.00 2.95 2.88 3.23 3.58 4.10 3.99 3.56 3.92 4.50 5.57 6.57 6.65 5.73 4.63 3.83 3.43 3.31 3.23 2.94 2.67
2.01 2.09 2.19 2.37 2.47 2.35 2.73 2.46 2.65 3.08 3.27 2.98 2.93 2.81 2.89 3.12 3.21 3.05 2.62 2.27 2.42 2.57 2.78 2.80 2.82 3.14 3.42 3.70 3.82 3.25 2.98 3.22 4.16 5.43 6.34 6.39 5.54 4.46 3.83 3.83 4.06 3.88 3.49
2.14 1.96 2.22 2.56 2.64 2.47 2.53 2.63 3.00 2.96 2.95 2.92 2.90 2.84 2.96 3.04 2.84 2.88 2.88 2.67 2.44 2.09 2.21 2.53 2.79 2.96 3.13 3.42 3.70 3.32 3.11 2.94 3.04 3.60 4.35 5.13 5.63 5.39 4.91 4.77 5.05 5.25 5.05
2.22 2.09 2.27 2.58 2.60 2.67 2.67 2.65 2.78 2.85 2.95 3.02 2.92 2.70 2.77 2.90 2.94 3.05 2.78 2.72 2.72 2.31 2.32 2.56 2.66 2.85 2.91 3.11 3.04 2.99 2.93 2.90 2.82 2.80 3.07 3.53 4.21 4.88 5.23 5.47 5.78 6.10 6.26
1.97 2.09 2.23 2.52 2.52 2.56 2.50 2.74 2.78 2.77 2.91 2.89 2.80 2.75 2.64 2.55 2.70 2.88 2.91 2.70 2.67 2.51 2.67 2.59 2.57 2.65 2.62 2.94 3.13 3.09 2.62 2.66 2.51 2.45 2.53 2.78 3.10 3.72 4.43 4.96 5.47 6.01 6.37
1.63 1.78 1.98 2.08 2.16 2.20 2.17 2.73 2.65 2.72 2.87 2.72 2.49 2.89 2.77 2.44 2.62 2.75 3.06 3.28 3.04 2.85 2.87 2.74 2.66 2.69 2.83 2.99 3.16 3.16 2.63 2.61 2.44 2.24 2.10 2.10 2.23 2.48 2.98 3.42 3.86 4.38 4.88
1.71 1.78 1.84 2.09 2.24 2.32 2.40 2.70 2.65 2.64 2.86 2.65 2.60 2.75 2.65 2.57 2.58 2.50 2.91 3.32 3.55 3.31 3.04 2.87 2.61 2.50 2.64 2.79 2.91 2.58 2.41 2.51 2.36 2.16 1.98 1.87 1.87 1.99 2.21 2.43 2.57 2.71 2.92
1.85 1.99 2.05 2.22 2.37 2.36 2.42 2.63 2.55 2.67 2.82 2.69 2.70 2.73 2.62 2.54 2.67 2.58 2.72 3.04 3.33 3.54 3.23 2.68 2.50 2.34 2.36 2.19 2.40 2.13 2.19 2.42 2.23 2.04 1.89 1.84 1.82 1.84 1.89 2.01 2.10 2.13 2.20
1.92 2.01 2.13 2.30 2.36 2.45 2.57 2.71 2.49 2.61 2.76 2.92 2.79 2.81 2.86 2.95 2.92 2.82 2.91 2.99 3.20 3.50 3.37 2.77 2.63 2.59 2.46 2.21 2.18 2.08 2.03 2.16 2.20 2.29 2.06 1.90 1.76 1.66 1.68 1.75 1.82 1.91 2.02
2.24 2.20 2.26 2.34 2.25 2.33 2.59 2.64 2.57 2.63 2.69 2.72 2.90 3.19 3.09 3.15 3.10 2.92 3.05 2.98 3.11 3.50 3.36 2.97 2.90 2.91 2.84 2.58 2.43 2.22 1.98 1.99 2.15 2.45 2.18 1.98 1.83 1.73 1.72 1.74 1.77 1.78 1.78
2.54 2.58 2.58 2.44 2.37 2.38 2.47 2.58 2.67 2.69 2.69 2.73 2.87 2.96 3.02 3.27 3.15 3.05 2.96 2.92 3.05 3.26 3.43 3.11 2.98 3.19 3.04 2.73 2.60 2.29 2.07 2.19 1.96 2.12 2.12 2.09 2.02 1.88 1.80 1.71 1.75 1.78 1.74
2.61 2.75 2.72 2.66 2.59 2.46 2.33 2.32 2.40 2.49 2.63 2.76 2.80 2.72 2.82 3.07 3.18 3.19 2.96 2.98 3.15 3.27 3.35 3.25 3.08 3.20 3.23 3.13 2.96 2.66 2.54 2.38 2.19 2.04 2.14 2.09 2.11 1.97 1.80 1.65 1.68 1.72 1.73
2.57 2.75 2.81 2.84 2.78 2.56 2.28 2.36 2.53 2.51 2.69 2.67 2.56 2.46 2.46 2.73 2.97 3.07 2.78 2.85 3.07 3.08 3.08 3.11 3.08 3.16 3.23 3.38 3.21 2.88 2.63 2.48 2.24 2.06 2.11 1.98 2.02 1.93 1.84 1.81 1.78 1.69 1.52
2.95 2.98 2.85 2.78 2.69 2.28 2.46 2.52 2.53 2.56 2.71 2.69 2.59 2.47 2.36 2.31 2.33 2.52 2.64 2.78 2.95 2.94 2.95 3.13 3.27 3.33 3.33 3.41 3.41 3.18 2.88 2.64 2.38 2.13 2.28 2.26 2.21 2.21 1.97 1.73 1.76 1.68 1.53
3.31 3.29 3.12 2.91 2.73 2.67 2.65 2.43 2.39 2.27 2.32 2.40 2.51 2.48 2.16 1.95 2.09 2.02 2.26 2.41 2.49 2.58 2.69 2.95 3.11 3.16 3.29 3.45 3.58 3.29 3.09 2.89 2.59 2.33 2.40 2.23 2.16 2.22 2.13 1.96 2.01 1.77 1.65
3.25 3.26 3.14 2.98 2.82 2.72 2.64 2.35 2.33 2.10 2.08 2.13 2.23 2.28 2.22 2.07 2.04 2.18 2.18 2.08 1.99 2.05 2.25 2.32 2.46 2.74 2.97 3.22 3.45 3.36 3.31 3.01 2.65 2.39 2.38 2.21 2.04 2.06 2.14 2.16 2.14 1.92 1.72
3.06 2.91 2.81 2.78 2.73 2.77 2.80 2.46 2.29 2.04 2.07 2.03 2.04 2.08 2.11 2.03 2.22 2.20 2.10 2.04 2.02 2.00 2.09 2.22 2.23 2.39 2.65 2.81 3.00 3.14 3.12 2.99 2.69 2.47 2.47 2.43 2.18 2.13 2.16 2.10 1.97 1.97 1.78
3.00 2.88 2.69 2.65 2.64 2.61 2.70 2.34 2.20 2.00 2.01 2.00 2.05 2.06 2.10 2.02 2.09 1.99 1.90 1.98 1.94 1.95 2.06 2.07 2.07 2.08 2.16 2.49 2.87 2.71 2.77 2.86 2.61 2.32 2.12 2.26 2.24 2.33 2.29 1.99 1.80 1.71 1.67